Terug naar catalogus

SL-6 R/B(2)

ActiefHEO
NORAD 18883·ROCKET BODY·🇷🇺 Russia

Gelanceerd Feb 26, 1988 vanaf Plesetsk Cosmodrome

Loading…

Volgende Passages (komende 24 uur)

TLE

VersSource: Space-Track

Epoch: Sep 13, 2026, 19:21 UTC

1 18883U 88013C   26256.80643373  .00000704  00000-0  00000-0 0  9994
2 18883  64.4917 283.7907 6669832  22.8870 356.6530  2.04035945287089

Volg SL-6 R/B(2) in realtime met AllMySat

Download on the App Store